User: anonymous   Login
Location: Haut Kerinec
(48.0623°N, 4.4081°W)
Time: 02:55:22
(UTC+00:00)
Language:

STARLINK-1254 - Orbit

View from above orbital plane
View from above orbital plane
View from above satellite
View from above satellite

Ground track
Ground track

The orbit data is extracted from the following two-line orbital elements,

1 45216U 20012AQ  20221.91667824 +.00001475 +00000-0 +12033-3 0  9992
2 45216 053.0012 179.0197 0001568 093.5810 242.4588 15.05589514001750
Epoch (UTC): 08 August 2020 22:00:01
Eccentricity: 0.0001568
inclination: 53.0012°
perigee height: 548 km
apogee height: 551 km
right ascension of ascending node: 179.0197°
argument of perigee: 93.5810°
revolutions per day: 15.05589514
mean anomaly at epoch: 242.4588°
orbit number at epoch: 175

The dashed part of the orbit path shows where the satellite is in the earth's shadow,  

DLR